Flag Weather past 2 weeks in Hannover, Lower Saxony, Germany

Now
32 °F

Clear.


Feels Like: 25 °F
Forecast: 33 / 39 °F
Wind: 8 mph from East

Location: Hannover

Current Time: Nov 27, 2014 at 6:48:17 AM

Latest Report: Nov 27, 2014 at 6:20 AM


Visibility: 5 mi

Pressure: 29.92 "Hg

Humidity: 93%

Dew point: 30 °F

Location of HannoverLocation

Historic Weather in Hannover — Graph

°F

Hannover temperature yesterday

Maximum temperature yesterday: 41 °F (at 12:20 AM)
Minimum temperature yesterday: 36 °F (at 11:50 PM)
Average temperature yesterday: 39 °F

Past Weeks' High & Low Weather Summary

 TemperatureHumidityPressure
High55 °F (Nov 23, 1:50 PM)100% (Nov 12, 5:50 AM)30.36 "Hg (Nov 12, 5:50 AM)
Low30 °F (Nov 21, 5:20 AM)63% (Nov 23, 2:50 PM)29.50 "Hg (Nov 16, 12:50 PM)
Average45 °F91%29.99 "Hg
* Reported Nov 12 5:20 AM — Nov 27 5:20 AM, Hannover, Weather by CustomWeather, © 2014

Note: Actual official high and low records may vary slightly from our data, if they occured in-between our weather recording intervals... More about our weather records

Advertising

Hannover weather history for previous 24 hours

 ConditionsComfort  
Time TempWeatherWind HumidityBarometerVisibility
5:20 AM
Nov 27
34 °FClear.8 mph87%29.92 "Hg10 mi
4:50 AM34 °FClear.9 mph87%29.95 "Hg10 mi
4:20 AM34 °FClear.9 mph93%29.95 "Hg10 mi
3:50 AM34 °FClear.9 mph93%29.95 "Hg10 mi
3:20 AM34 °FClear.9 mph93%29.95 "Hg10 mi
2:50 AM34 °FClear.9 mph93%29.95 "Hg10 mi
2:20 AM34 °FClear.10 mph93%29.98 "Hg10 mi
1:50 AM36 °FClear.10 mph87%29.98 "Hg10 mi
1:20 AM36 °FClear.12 mph87%29.98 "Hg10 mi
12:50 AM36 °FClear.10 mph87%30.01 "Hg10 mi
12:20 AM36 °FClear.13 mph87%30.01 "Hg10 mi
11:50 PM
Nov 26
36 °FClear.12 mph87%30.01 "Hg10 mi
11:20 PM37 °FPassing clouds.14 mph81%30.01 "HgN/A
10:50 PM37 °FPassing clouds.15 mph81%30.04 "HgN/A
10:20 PM37 °FPartly cloudy.12 mph87%30.04 "HgN/A
9:50 PM39 °FPartly cloudy.15 mph81%30.04 "HgN/A
9:20 PM39 °FPartly cloudy.16 mph81%30.04 "HgN/A
8:50 PM39 °FPartly cloudy.13 mph87%30.04 "HgN/A
8:20 PM39 °FPartly cloudy.12 mph87%30.04 "HgN/A
7:50 PM39 °FPartly cloudy.9 mph87%30.04 "HgN/A
7:20 PM39 °FClear.10 mph87%30.04 "Hg10 mi
6:50 PM39 °FClear.12 mph87%30.04 "Hg10 mi
6:20 PM39 °FClear.12 mph87%30.07 "Hg10 mi
5:50 PM39 °FClear.12 mph87%30.07 "Hg10 mi
5:20 PM39 °FClear.10 mph87%30.07 "Hg10 mi
4:50 PM39 °FPassing clouds.10 mph87%30.07 "HgN/A
4:20 PM39 °FClear.9 mph87%30.07 "Hg10 mi
3:50 PM39 °FSunny.13 mph81%30.07 "Hg10 mi
3:20 PM39 °FPartly sunny.13 mph81%30.09 "HgN/A
2:50 PM39 °FPartly sunny.13 mph81%30.09 "HgN/A
2:20 PM41 °FPassing clouds.15 mph76%30.09 "HgN/A
1:50 PM39 °FPassing clouds.10 mph81%30.09 "HgN/A
1:20 PM41 °FScattered clouds.16 mph76%30.12 "HgN/A
12:50 PM39 °FScattered clouds.10 mph87%30.12 "HgN/A
12:20 PM39 °FPartly sunny.16 mph81%30.12 "HgN/A
11:50 AM39 °FPartly sunny.15 mph87%30.12 "HgN/A
11:20 AM39 °FPartly sunny.16 mph81%30.15 "HgN/A
10:50 AM39 °FPartly sunny.14 mph81%30.15 "HgN/A
10:20 AM39 °FPartly sunny.20 mph81%30.15 "HgN/A
9:50 AM39 °FOvercast.14 mph87%30.15 "HgN/A
9:20 AM39 °FOvercast.14 mph87%30.15 "HgN/A
8:50 AM39 °FOvercast.15 mph87%30.15 "HgN/A
8:20 AM39 °FOvercast.15 mph87%30.15 "HgN/A
7:50 AM39 °FOvercast.10 mph87%30.15 "HgN/A
7:20 AM39 °FOvercast.10 mph87%30.15 "HgN/A
6:50 AM39 °FOvercast.10 mph87%30.18 "HgN/A
6:20 AM39 °FOvercast.12 mph87%30.15 "HgN/A
Weather by CustomWeather, © 2014

See weather overviewHow to use our weather pages